Regional Weather Roundup
Issued by NWS

Home | Current Version | Previous Version | Text Only | Print | Product List | Glossary Off
Versions: 1 2 3 4 5 6 7 8 9 10 11 12 13 14 15 16 17 18 19 20 21 22 23 24 25 26 27 28 29 30 31 32 33 34 35 36 37 38 39 40 41 42 43 44 45 46 47 48 49 50

000
ASUS43 KFSD 270010
RWRSD

WEATHER ROUNDUP FOR SOUTH DAKOTA
NATIONAL WEATHER SERVICE SIOUX FALLS SD
700 PM CDT FRI AUG 26 2016

NOTE: "FAIR" INDICATES FEW OR NO CLOUDS BELOW 12,000 FEET WITH NO
SIGNIFICANT WEATHER AND/OR OBSTRUCTIONS TO VISIBILITY.


SDZ001>005-009-010-012>017-270100-
NORTHWEST AND NORTH CENTRAL SOUTH DAKOTA

CITY           SKY/WX    TMP DP  RH WIND       PRES   REMARKS
BUFFALO          N/A     67  48  50 S16       29.95R
FAITH            N/A     62  57  83 S9        30.03R
MOBRIDGE       CLOUDY    61  55  81 SE9       30.02F
$$

SDZ012>016-024>037-041>051-057-063-072>074-270100-
SOUTHWEST AND SOUTH CENTRAL SOUTH DAKOTA

CITY           SKY/WX    TMP DP  RH WIND       PRES   REMARKS
RAPID CTY ARPT MOSUNNY   66  53  63 S6        30.00R THUNDER
PIERRE         PTSUNNY   66  55  67 SE10      30.02F
CUSTER         MOSUNNY   63  46  54 SW5       30.08R
ELLSWORTH AFB  TSTM      66  54  63 S9          N/A
PHILIP         MOSUNNY   67  58  72 E17       30.00F
PINE RIDGE     CLOUDY    68  55  63 S10       30.01S
WINNER         FAIR      67  58  72 E7        30.02S
$$

SDZ004>011-016>023-039-040-270100-
NORTHEAST SOUTH DAKOTA

CITY           SKY/WX    TMP DP  RH WIND       PRES   REMARKS
ABERDEEN       CLOUDY    63  57  81 E5        30.06F
WATERTOWN      PTSUNNY   69  52  54 S7        30.08F
BROOKINGS      CLOUDY    68  55  63 SE7       30.09F
SISSETON         N/A     66  62  87 S3        30.06F
$$

SDZ017-020-022-023-036>040-048>070-270100-
SOUTHEAST SOUTH DAKOTA

CITY           SKY/WX    TMP DP  RH WIND       PRES   REMARKS
SIOUX FALLS    CLOUDY    71  58  63 SE8       30.09F
HURON          CLOUDY    67  55  65 E9        30.05F
CHAMBERLAIN    CLOUDY    70  56  62 E5        30.04R
MITCHELL       PTSUNNY   69  57  65 E7        30.05F
YANKTON        PTSUNNY   72  57  60 NE8       30.05F
$$

ABBREVIATIONS USED IN REMARKS
   TC - TEMPERATURE IN CELSIUS
  WCI - WIND CHILL INDEX
   HX - HEAT INDEX
  VSB - VISIBILITY





USA.gov is the U.S. government's official web portal to all federal, state and local government web resources and services.